Notices

What's New in latest Release from April 7th, 2021:

- Updated Glossary, including Speed of Maximum Gust, and Total Hourly Precipitation

- Updated national and regional climate services offices contacts and prices information

- Addition of station inventory lists for 1981-2010, 1971-2000, and 1961-1990 Normals.

If you haven't already, please take our survey and provide feedback about our website: https://eccc.sondage-survey.ca/f/LanguageSelection.aspx?s=442ca660-fcf1-47c0-95a9-59707d6fd709

Hourly Data Report for December 28, 2019

SAINT JOHN A
NEW BRUNSWICK
Current Station Operator: NAVCAN

45°18'58.000" N
65°53'24.000" W
108.80 m
8104901
71609
YSJ

Download Data

Hourly Data (December 2019)
Hourly Data Report for December 28, 2019
TIME
LST
Temp Definition
°C
Dew Point Definition
°C
Rel Hum Definition
%
Precip. Amount Definition
mm

Wind Dir Definition
10's deg

Wind Spd Definition
km/h
Visibility Definition
km
Stn Press Definition
kPa
Hmdx Definition


Wind Chill Definition


Weather Definition


00:00 3.8 3.3 96   28 16 8.1 99.59     Fog
01:00 3.3 2.7 96   26 15 6.4 99.59     Fog
02:00 3.1 1.3 88   29 19 24.1 99.60     Cloudy
03:00 2.0 0.4 89   28 10 24.1 99.76     LegendNANA
04:00 1.3 -0.3 89   30 13 24.1 99.78     LegendNANA
05:00 0.7 -0.4 92   28 12 24.1 99.82     Mainly Clear
06:00 -0.1 -0.9 94   25 11 24.1 99.81   -4 LegendNANA
07:00 -0.1 -1.0 94   26 7 24.1 99.85   -3 LegendNANA
08:00 -0.3 -1.2 94   28 9 24.1 99.83   -3 Mostly Cloudy
09:00 0.5 -0.6 92   27 13 24.1 99.90     LegendNANA
10:00 1.1 -0.1 91   25 10 24.1 99.94     LegendNANA
11:00 2.7 0.3 84   28 20 24.1 99.90     Mostly Cloudy
12:00 4.2 0.0 74   29 14 24.1 99.81     LegendNANA
13:00 4.8 -1.6 63   32 32 24.1 99.81     LegendNANA
14:00 4.5 -2.6 60   33 32 24.1 99.82     Mostly Cloudy
15:00 3.3 -3.5 61   31 30 24.1 99.87     LegendNANA
16:00 3.2 -3.2 63   30 16 24.1 99.91     LegendNANA
17:00 2.6 -3.0 67   30 16 24.1 99.91     Mostly Cloudy
18:00 1.6 -4.0 66   27 10 24.1 99.97     LegendNANA
19:00 1.0 -3.7 71   27 15 24.1 100.03     LegendNANA
20:00 0.9 -4.1 70   28 14 24.1 100.05     Mainly Clear
21:00 0.5 -4.5 70   30 16 24.1 100.10     LegendNANA
22:00 0.3 -5.0 67   28 13 24.1 100.09     LegendNANA
23:00 -0.6 -4.7 74   27 14 24.1 100.08   -5 Mainly Clear

Notes on Data Quality.

Legend

  • E = Estimated
  • M = Missing
  • NA = Not Available*
  • [empty] = Indicates an unobserved value
Date modified: